Location: Unspecified
(0.0000°N, 0.0000°E)
Time: 12:57:43
(UTC+00:00)

SL-12 DEB - Pass Details

Date: 05 May 2025
Orbit: 905 x 18020 km, 65.1° (Epoch: 09 July)

Event Time Altitude Azimuth Distance (km) Brightness Sun altitude
Rises 20:16:49 0° 336° (NNW) 23,081 ? -33.4°
Reaches altitude 10° 20:50:09 10° 334° (NNW) 22,486 ? -41.2°
Maximum altitude 22:42:59 39° 273° (W) 9,802 ? -65.4°
Enters shadow 23:02:51 25° 222° (SW) 6,613 ? -68.8°
